TimeEST,TemperatureF,Dew PointF,Humidity,Sea Level PressureIn,VisibilityMPH,Wind Direction,Wind SpeedMPH,Gust SpeedMPH,PrecipitationIn,Events,Conditions,WindDirDegrees,DateUTC
12:51 AM,27.1,23.0,84,30.46,10.0,NNW,6.9,-,N/A,,Clear,330,2012-11-17 05:51:00
1:51 AM,28.0,24.1,85,30.48,10.0,NNW,6.9,-,N/A,,Clear,330,2012-11-17 06:51:00
2:51 AM,28.0,23.0,81,30.50,10.0,NW,3.5,-,N/A,,Clear,320,2012-11-17 07:51:00
3:51 AM,27.1,23.0,84,30.52,10.0,Calm,Calm,-,N/A,,Clear,0,2012-11-17 08:51:00
4:51 AM,26.1,23.0,88,30.54,10.0,NNW,6.9,-,N/A,,Clear,330,2012-11-17 09:51:00
5:51 AM,26.1,23.0,88,30.57,10.0,Calm,Calm,-,N/A,,Clear,0,2012-11-17 10:51:00
6:51 AM,26.1,23.0,88,30.59,10.0,Calm,Calm,-,0.00,,Clear,0,2012-11-17 11:51:00
7:51 AM,28.0,25.2,89,30.62,10.0,Calm,Calm,-,N/A,,Clear,0,2012-11-17 12:51:00
8:51 AM,34.9,28.0,76,30.63,10.0,Calm,Calm,-,N/A,,Clear,0,2012-11-17 13:51:00
9:51 AM,39.9,28.0,63,30.64,10.0,North,5.8,-,N/A,,Clear,10,2012-11-17 14:51:00
10:51 AM,43.0,29.1,58,30.63,10.0,Calm,Calm,-,N/A,,Clear,0,2012-11-17 15:51:00
11:51 AM,43.9,28.0,54,30.62,10.0,Calm,Calm,-,N/A,,Clear,0,2012-11-17 16:51:00
12:51 PM,45.0,28.0,52,30.61,10.0,Calm,Calm,-,N/A,,Clear,0,2012-11-17 17:51:00
1:51 PM,46.9,27.1,46,30.61,10.0,Calm,Calm,-,N/A,,Clear,0,2012-11-17 18:51:00
2:51 PM,47.8,25.2,41,30.60,10.0,Calm,Calm,-,N/A,,Clear,0,2012-11-17 19:51:00
3:51 PM,43.0,27.1,54,30.61,10.0,Calm,Calm,-,N/A,,Clear,0,2012-11-17 20:51:00
4:51 PM,37.9,28.0,68,30.62,10.0,Calm,Calm,-,N/A,,Clear,0,2012-11-17 21:51:00
5:51 PM,36.0,27.1,70,30.64,10.0,Calm,Calm,-,N/A,,Clear,0,2012-11-17 22:51:00
6:51 PM,32.9,26.1,76,30.66,10.0,Calm,Calm,-,N/A,,Clear,0,2012-11-17 23:51:00
7:51 PM,31.1,26.1,82,30.67,10.0,Calm,Calm,-,N/A,,Clear,0,2012-11-18 00:51:00
8:51 PM,29.1,25.2,85,30.67,10.0,NW,3.5,-,N/A,,Clear,310,2012-11-18 01:51:00
9:51 PM,29.1,25.2,85,30.68,10.0,Calm,Calm,-,N/A,,Clear,0,2012-11-18 02:51:00
10:51 PM,27.1,24.1,88,30.68,10.0,Calm,Calm,-,N/A,,Clear,0,2012-11-18 03:51:00
11:51 PM,27.1,23.0,84,30.69,10.0,Calm,Calm,-,N/A,,Clear,0,2012-11-18 04:51:00